Presque Isle, ME

3:55 AM EST on February 21, 2017 (GMT -0500)
Northern Maine Regional At Presque Isle

Weather History for KPQI - January, 2014

Change the Weather History Date:

Friday, January 3, 2014

  Actual Average Record
Temperature  
Mean Temperature -15 °F -  
Max Temperature -7 °F 21 °F 47 °F (1942)
Min Temperature -23 °F 3 °F -30 °F (1934)
Degree Days  
Heating Degree Days 80    
Moisture  
Dew Point -26 °F    
Average Humidity 52    
Maximum Humidity 92    
Minimum Humidity 41    
Precipitation  
Precipitation 0.00 in - - ()
Sea Level Pressure  
Sea Level Pressure 30.06 in    
Wind  
Wind Speed 11 mph (NNW)    
Max Wind Speed 16 mph    
Max Gust Speed 21 mph    
Visibility 10 miles    
Events      
Averages and records for this station are not official NWS values.
T = Trace of Precipitation, MM = Missing Value Source: NWS Daily Summary

Daily Weather History Graph

Daily Weather History Graph

Search for Another Location

Airport or City:

Trip Planner

Search our weather history database for the weather conditions in past years. The results will help you decide how hot, cold, wet, or windy it might be!

Date:

Astronomy

Jan. 03, 2014 Rise Set
Actual Time 7:16 AM EST 3:56 PM EST
Civil Twilight 6:41 AM EST 4:31 PM EST
Nautical Twilight 6:03 AM EST 5:10 PM EST
Astronomical Twilight 5:26 AM EST 5:46 PM EST
Moon 8:29 AM EST (1/3) 7:14 PM EST (1/3)
Length of Visible Light 9h 50m
Length of Day
8h 40m
Waxing Crescent, 8% of the Moon is Illuminated
Jan 3
Waxing Crescent
Jan 7
First Quarter
Jan 15
Full
Jan 24
Last Quarter
Jan 30
New

Hourly Weather History & Observations

Time (EST) Temp. Windchill Dew Point Humidity Pressure Visibility Wind Dir Wind Speed Gust Speed Precip Events Conditions
12:15 AM -16.6 °F -36.8 °F -29.2 °F 53% 30.16 in 10.0 mi North 10.4 mph - N/A   Scattered Clouds
12:35 AM -16.6 °F -37.9 °F - N/A% 30.15 in 10.0 mi North 11.5 mph - N/A   Scattered Clouds
12:55 AM -16.6 °F -37.9 °F - N/A% 30.15 in 10.0 mi North 11.5 mph - N/A   Scattered Clouds
1:15 AM -16.6 °F -39.8 °F - N/A% 30.15 in 10.0 mi North 13.8 mph - N/A   Scattered Clouds
1:35 AM -16.6 °F -37.9 °F -29.2 °F 53% 30.15 in 10.0 mi North 11.5 mph - N/A   Mostly Cloudy
1:55 AM -16.6 °F -39.8 °F -29.2 °F 53% 30.14 in 10.0 mi North 13.8 mph - N/A   Mostly Cloudy
2:15 AM -16.6 °F -39.8 °F -29.2 °F 53% 30.14 in 10.0 mi North 13.8 mph - N/A   Overcast
2:35 AM -16.6 °F -40.6 °F -29.2 °F 53% 30.12 in 10.0 mi North 15.0 mph - N/A   Overcast
2:55 AM -16.6 °F -39.8 °F -29.2 °F 53% 30.10 in 10.0 mi North 13.8 mph - N/A   Overcast
3:15 AM -16.6 °F -39.8 °F -29.2 °F 53% 30.08 in 10.0 mi North 13.8 mph - N/A   Overcast
3:35 AM -16.6 °F -40.6 °F -27.4 °F 58% 30.08 in 10.0 mi North 15.0 mph - N/A   Scattered Clouds
3:55 AM -16.6 °F -38.9 °F -29.2 °F 53% 30.07 in 10.0 mi North 12.7 mph - N/A   Clear
4:15 AM -16.6 °F -38.9 °F -29.2 °F 53% 30.05 in 10.0 mi North 12.7 mph - N/A   Clear
4:35 AM -16.6 °F -37.9 °F -29.2 °F 53% 30.04 in 10.0 mi North 11.5 mph - N/A   Partly Cloudy
4:55 AM -16.6 °F -39.8 °F -29.2 °F 53% 30.03 in 10.0 mi North 13.8 mph - N/A   Partly Cloudy
5:15 AM -16.6 °F -38.9 °F -29.2 °F 53% 30.04 in 10.0 mi North 12.7 mph - N/A   Mostly Cloudy
5:35 AM -16.6 °F -36.8 °F -29.2 °F 53% 30.03 in 10.0 mi North 10.4 mph - N/A   Mostly Cloudy
5:55 AM -16.6 °F -37.9 °F -29.2 °F 53% 30.02 in 10.0 mi North 11.5 mph - N/A   Mostly Cloudy
6:15 AM -16.6 °F -37.9 °F -27.4 °F 58% 30.01 in 10.0 mi North 11.5 mph - N/A   Overcast
6:35 AM -16.6 °F -37.9 °F -29.2 °F 53% 30.01 in 10.0 mi North 11.5 mph - N/A   Overcast
6:55 AM -16.6 °F -37.9 °F -29.2 °F 53% 30.02 in 10.0 mi North 11.5 mph - N/A   Overcast
7:15 AM -16.6 °F -36.8 °F -27.4 °F 58% 30.02 in 10.0 mi North 10.4 mph - N/A   Overcast
7:35 AM -16.6 °F -36.8 °F -27.4 °F 58% 30.03 in 10.0 mi North 10.4 mph - N/A   Overcast
7:55 AM -16.6 °F -36.8 °F -27.4 °F 58% 30.03 in 10.0 mi North 10.4 mph - N/A   Overcast
8:15 AM -14.8 °F -34.6 °F -29.2 °F 48% 30.02 in 10.0 mi North 10.4 mph - N/A   Mostly Cloudy
8:35 AM -14.8 °F -36.6 °F -27.4 °F 53% 30.03 in 10.0 mi North 12.7 mph - N/A   Mostly Cloudy
8:55 AM -14.8 °F -37.5 °F -27.4 °F 53% 30.03 in 10.0 mi North 13.8 mph - N/A   Mostly Cloudy
9:15 AM -14.8 °F -34.6 °F -27.4 °F 53% 30.02 in 10.0 mi NNW 10.4 mph - N/A   Partly Cloudy
9:35 AM -14.8 °F -35.6 °F -29.2 °F 48% 30.02 in 10.0 mi NNW 11.5 mph - N/A   Clear
9:55 AM -14.8 °F -35.6 °F -27.4 °F 53% 30.02 in 10.0 mi NNW 11.5 mph - N/A   Clear
10:15 AM -14.8 °F -36.6 °F -27.4 °F 53% 30.00 in 10.0 mi NNW 12.7 mph - N/A   Clear
10:35 AM -14.8 °F -35.6 °F -27.4 °F 53% 30.00 in 10.0 mi NNW 11.5 mph - N/A   Clear
10:55 AM -13.0 °F -34.3 °F -27.4 °F 49% 29.99 in 10.0 mi NNW 12.7 mph - N/A   Clear
11:15 AM -13.0 °F -35.2 °F -25.6 °F 53% 29.98 in 10.0 mi NNW 13.8 mph - N/A   Clear
11:35 AM -11.2 °F -34.4 °F -25.6 °F 49% 29.97 in 10.0 mi North 16.1 mph - N/A   Clear
11:55 AM -11.2 °F -32.9 °F -25.6 °F 49% 29.96 in 10.0 mi North 13.8 mph - N/A   Clear
12:15 PM -11.2 °F -33.7 °F -25.6 °F 49% 29.96 in 10.0 mi NNW 15.0 mph - N/A   Clear
12:35 PM -11.2 °F -32.9 °F -27.4 °F 45% 29.96 in 10.0 mi North 13.8 mph - N/A   Clear
12:55 PM -11.2 °F -34.4 °F -25.6 °F 49% 29.96 in 10.0 mi NNW 16.1 mph - N/A   Clear
1:15 PM -9.4 °F -32.1 °F -23.8 °F 49% 29.96 in 10.0 mi North 16.1 mph 20.7 mph N/A   Clear
1:35 PM -7.6 °F -29.1 °F -23.8 °F 45% 29.96 in 10.0 mi NNW 15.0 mph 20.7 mph N/A   Clear
1:55 PM -7.6 °F -29.1 °F -23.8 °F 45% 29.96 in 10.0 mi North 15.0 mph 20.7 mph N/A   Clear
2:15 PM -7.6 °F -26.6 °F -22.0 °F 50% 29.97 in 10.0 mi NW 11.5 mph - N/A   Clear
2:35 PM -7.6 °F -24.6 °F -23.8 °F 45% 29.97 in 10.0 mi NNW 9.2 mph - N/A   Clear
2:55 PM -7.6 °F -26.6 °F -25.6 °F 41% 29.98 in 10.0 mi NNW 11.5 mph 20.7 mph N/A   Clear
3:15 PM -7.6 °F -24.6 °F -22.0 °F 50% 29.99 in 10.0 mi NNW 9.2 mph 16.1 mph N/A   Clear
3:35 PM -7.6 °F -22.1 °F -23.8 °F 45% 30.00 in 10.0 mi NNW 6.9 mph - N/A   Clear
3:55 PM -7.6 °F -23.4 °F -25.6 °F 41% 30.01 in 10.0 mi NNW 8.1 mph - N/A   Clear
4:15 PM -7.6 °F -26.6 °F -22.0 °F 50% 30.02 in 10.0 mi NNW 11.5 mph - N/A   Clear
4:35 PM -7.6 °F -25.7 °F -22.0 °F 50% 30.03 in 10.0 mi NNW 10.4 mph - N/A   Clear
4:55 PM -9.4 °F -29.8 °F -25.6 °F 45% 30.04 in 10.0 mi NNW 12.7 mph - N/A   Clear
5:15 PM -9.4 °F -25.6 °F -23.8 °F 49% 30.06 in 10.0 mi NNW 8.1 mph - N/A   Clear
5:35 PM -9.4 °F -28.9 °F -23.8 °F 49% 30.07 in 10.0 mi NNW 11.5 mph 16.1 mph N/A   Clear
5:55 PM -9.4 °F -24.3 °F -25.6 °F 45% 30.08 in 10.0 mi NW 6.9 mph - N/A   Clear
6:15 PM -9.4 °F -22.7 °F -25.6 °F 45% 30.09 in 10.0 mi NW 5.8 mph - N/A   Clear
6:35 PM -11.2 °F -29.0 °F -23.8 °F 54% 30.10 in 10.0 mi NW 9.2 mph - N/A   Clear
6:55 PM -11.2 °F -24.8 °F -25.6 °F 49% 30.11 in 10.0 mi NW 5.8 mph - N/A   Clear
7:15 PM -11.2 °F -23.0 °F -25.6 °F 49% 30.12 in 10.0 mi NW 4.6 mph - N/A   Clear
7:35 PM -14.8 °F - -27.4 °F 53% 30.13 in 10.0 mi Calm Calm - N/A   Clear
7:55 PM -16.6 °F - -27.4 °F 58% 30.14 in 10.0 mi Calm Calm - N/A   Clear
8:15 PM -18.4 °F -33.4 °F -27.4 °F 63% 30.14 in 10.0 mi WNW 5.8 mph - N/A   Clear
8:35 PM -14.8 °F -29.1 °F -16.6 °F 92% 30.14 in 10.0 mi West 5.8 mph - N/A   Clear
8:55 PM -16.6 °F -29.3 °F - N/A% 30.14 in 10.0 mi West 4.6 mph - N/A   Clear
9:15 PM -16.6 °F -29.3 °F -23.8 °F 70% 30.15 in 10.0 mi West 4.6 mph - N/A   Clear
9:35 PM -14.8 °F -27.2 °F -27.4 °F 53% 30.16 in 10.0 mi West 4.6 mph - N/A   Clear
9:55 PM -16.6 °F - -23.8 °F 70% 30.15 in 10.0 mi Calm Calm - N/A   Clear
10:15 PM -16.6 °F - - N/A% 30.14 in 10.0 mi Calm Calm - N/A   Clear
10:35 PM -20.2 °F -33.5 °F - N/A% 30.14 in 10.0 mi WSW 4.6 mph - N/A   Clear
10:55 PM -20.2 °F -30.9 °F - N/A% 30.15 in 10.0 mi SW 3.5 mph - N/A   Clear
11:15 PM -20.2 °F -30.9 °F - N/A% 30.16 in 10.0 mi West 3.5 mph - N/A   Clear
11:35 PM -23.8 °F - - N/A% 30.16 in 10.0 mi Calm Calm - N/A   Clear
11:55 PM -23.8 °F - - N/A% 30.16 in 10.0 mi Calm Calm - N/A   Clear